Regional Weather Roundup
Issued by NWS New Orleans/Baton Rouge, LA

Home | Current Version | Previous Version | Text Only | Print | Product List | Glossary Off
Versions: 1 2 3 4 5 6 7 8 9 10 11 12 13 14 15 16 17 18 19 20 21 22 23 24 25 26 27 28 29 30 31 32 33 34 35 36 37 38 39 40 41 42 43 44 45 46 47 48 49 50

969
ASUS44 KLIX 281510
RWRLIX
NEW ORLEANS REGIONAL WEATHER ROUNDUP
NATIONAL WEATHER SERVICE NEW ORLEANS LA
900 AM CST SUN DEC 28 2014

NOTE: "FAIR" INDICATES FEW OR NO CLOUDS BELOW 12,000 FEET WITH NO
      SIGNIFICANT WEATHER AND/OR OBSTRUCTIONS TO VISIBILITY.
      SKY/WX - SKY CONDITION AND SIGNIFICANT WEATHER.
      TMP - AIR TEMPERATURE.     DP    - DEWPOINT TEMPERATURE.
      RH  - RELATIVE HUMIDITY.   PRES  - PRESSURE.
      HI  - HEAT INDEX.          WCI   - WIND CHILL INDEX.

*  THESE STATIONS ARE NOT NWS OR FAA STATIONS AND ARE NOT UNDER
   NWS QUALITY CONTROL.

LAZ038-040-048-061>063-065>067-069-281600-
SOUTHEAST LOUISIANA

CITY           SKY/WX    TMP DP  RH WIND       PRES   REMARKS
N.O. AUDUBON     N/A     67  67 100 MISG        N/A
N.O. INTL ARPT FOG       68  66  93 S5        30.10R VSB 1/2
N.O. LAKEFRONT FOG       69  66  90 SW5       30.11R VSB 1/4
N.O. DOWNTOWN* CLOUDY    68  64  88 SW3       30.11R VSB 3/4
SLIDELL        CLOUDY    69  67  93 CALM      30.09R FOG
BATON ROUGE    CLOUDY    53  51  93 N7        30.14R
BOOTHVILLE     CLOUDY    66  66 100 CALM      30.11S FOG
BELLE CHASSE   FOG       69  68  96 NW3       30.10R VSB 1/2
BOGALUSA*        N/A     63  60  90 N10       30.12R
GALLIANO*      FOG       56  56  97 MISG      30.10S VSB<1/4
NEW ROADS*     CLOUDY    53  51  92 N6        30.16R
GONZALES*      CLOUDY    57  57 100 N8        30.13R FOG
HAMMOND*       NOT AVBL
HOUMA*         FOG       66  66 100 CALM      30.10S VSB 1/2
PORT FOURCHON* FOG       66  64  94 MISG      30.13  VSB 0

$$

MSZ070-080>082-281600-
SOUTHERN MISSISSIPPI

CITY           SKY/WX    TMP DP  RH WIND       PRES   REMARKS
MCCOMB         CLOUDY    52  50  93 N8        30.13S
GULFPORT       FOG       66  66 100 CALM      30.09R VSB 3/4
BILOXI         FOG       64  64 100 W2        30.10R VSB<1/4
PASCAGOULA     FOG       66  65  96 S3        30.11R VSB 1/4
STENNIS ARPT*  CLOUDY    70  64  83 SW3       30.09S FOG

$$

COASTAL OBSERVATIONS
LAKE AND NEARSHORE STATIONS

STATION/POSITION TIME  TEMP    WIND        PRES    WAVE
                       AIR SEA DIR/SP/G            HT/PER
                 (UTC) (F)     (DEG/KT/KT) (MB)    (FT/S)
PASCAGOULA       1500   64     190/  3/  4 1019.0
WAVELAND YACHT   1500   67     250/  3/  6 1018.3
GRAND ISLE       1500   63 64  280/  6/  7 1019.3
SOUTHWEST PASS   1500   67                 1019.7
NEW CANAL        1500   67 58  210/  3/  4 1019.6
SHELL BEACH      1500   67 60  250/  6/  8 1019.1

OFFSHORE STATIONS

STATION/POSITION TIME  TEMP    WIND        PRES    WAVE
                       AIR SEA DIR/SP/G            HT/PER
                 (UTC) (F)     (DEG/KT/KT) (MB)    (FT/S)
64 S DAUPHIN ISL 1500   73 74  190/ 10/ 12 1019.4    4/ 6

$$




USA.gov is the U.S. government's official web portal to all federal, state and local government web resources and services.